Location: Staunton
(38.1490°N, 79.0720°W)
Time: 23:49:44
(UTC-05:00)

ISS - Pass Details

Date: 12 December 2019
Orbit: 411 x 421 km, 51.6° (Epoch: 15 December)

Event Time Altitude Azimuth Distance (km) Brightness Sun altitude
Rises 18:37:56 0° 288° (WNW) 2,355 1.0 -19.3°
Reaches altitude 10° 18:41:12 10° 253° (WSW) 1,489 0.3 -19.9°
Maximum altitude 18:42:23 12° 233° (SW) 1,399 -0.2 -20.1°
Drops below altitude 10° 18:43:35 10° 211° (SSW) 1,487 -0.4 -20.3°
Sets 18:46:50 0° 177° (S) 2,347 0.2 -21.0°
